1514242801.18,8650,8.5,73620.0,-5.11,-6.19,-6.19,0,*6E
1514242802.42,8651,8.5,73622.0,-5.09,-6.19,-6.19,0,*66
1514242803.68,8652,8.5,73626.8,-5.11,-6.23,-6.23,0,*6C
1514242804.9,8653,8.5,73624.5,-5.09,-6.19,-6.13,0,*6E
1514242806.11,8654,8.5,73626.8,-5.09,-6.19,-6.13,0,*69
1514242807.38,8655,8.5,73628.5,-5.11,-6.23,-6.19,0,*62
1514242808.64,8656,8.5,73628.3,-5.11,-6.19,-6.23,0,*61
1514242809.9,8657,8.5,73626.5,-5.11,-6.19,-6.23,0,*60
1514242811.11,8658,8.5,73624.8,-5.09,-6.19,-6.13,0,*65
1514242812.38,8659,8.5,73626.3,-5.11,-6.19,-6.23,0,*6E
1514242813.59,8660,8.5,73620.3,-5.09,-6.27,-6.13,0,*63
1514242814.8,8661,8.5,73614.3,-5.09,-6.19,-6.13,0,*6F
1514242816.04,8662,8.5,73612.8,-5.11,-6.09,-6.23,0,*67
1514242817.3,8663,8.5,73612.3,-5.11,-6.23,-6.19,0,*67
1514242818.54,8664,8.5,73612.8,-5.11,-6.23,-6.09,0,*61
1514242819.8,8665,8.5,73604.3,-5.11,-6.23,-6.19,0,*61
1514242821.02,8666,8.5,73610.3,-5.09,-6.19,-6.13,0,*68
1514242822.26,8667,8.5,73610.5,-5.09,-6.19,-6.19,0,*63
1514242823.45,8668,8.5,73616.0,-5.09,-6.13,-6.13,0,*6C
1514242824.72,8669,8.5,73612.5,-5.11,-6.19,-6.19,0,*64
1514242825.93,8670,8.5,73612.3,-5.09,-6.19,-6.13,0,*6F
1514242827.2,8671,8.5,73610.8,-5.11,-6.23,-6.19,0,*64
1514242828.41,8672,8.5,73608.5,-5.09,-6.19,-6.13,0,*6D
1514242829.66,8673,8.56,73610.8,-5.09,-6.19,-6.19,0,*66
1514242830.87,8674,8.5,73606.0,-5.09,-6.19,-6.13,0,*6B
1514242832.09,8675,8.5,73602.3,-5.09,-6.19,-6.13,0,*6A
1514242833.34,8676,8.5,73600.0,-5.11,-6.23,-6.23,0,*6A
1514242834.56,8677,8.5,73602.5,-5.11,-6.31,-6.31,0,*6B
1514242835.82,8678,8.5,73610.0,-5.11,-6.23,-6.23,0,*64
1514242837.06,8679,8.5,73610.3,-5.09,-6.23,-6.19,0,*65
1514242838.3,8680,8.5,73614.5,-5.09,-6.19,-6.27,0,*67
1514242839.56,8681,8.5,73618.3,-5.11,-6.23,-6.23,0,*62
1514242840.82,8682,8.5,73626.3,-5.11,-6.23,-6.23,0,*61
1514242842.06,8683,8.5,73622.3,-5.09,-6.27,-6.19,0,*64
1514242843.29,8684,8.5,73618.3,-5.11,-6.23,-6.13,0,*64
1514242844.54,8685,8.5,73612.8,-5.09,-6.19,-6.19,0,*6F
1514242845.78,8686,8.5,73610.8,-5.09,-6.19,-6.27,0,*61
1514242847.0,8687,8.5,73610.8,-5.09,-6.13,-6.19,0,*67
1514242848.24,8688,8.5,73610.8,-5.09,-6.19,-6.19,0,*62
1514242849.46,8689,8.5,73620.0,-5.09,-6.13,-6.19,0,*69
1514242850.71,8690,8.5,73616.5,-5.09,-6.19,-6.19,0,*6B
1514242851.95,8691,8.5,73618.5,-5.09,-6.19,-6.19,0,*6A
1514242853.2,8692,8.5,73616.0,-5.09,-6.19,-6.19,0,*69
1514242854.44,8693,8.5,73612.3,-5.09,-6.19,-6.19,0,*68
1514242855.66,8694,8.5,73612.8,-5.09,-6.19,-6.13,0,*65
1514242856.9,8695,8.5,73610.3,-5.09,-6.19,-6.19,0,*6E
1514242858.12,8696,8.5,73610.8,-5.09,-6.13,-6.19,0,*67
1514242859.34,8697,8.5,73604.8,-5.09,-6.13,-6.19,0,*66
1514242860.53,8698,8.5,73606.5,-5.09,-6.13,-6.13,0,*63
1514242861.77,8699,8.5,73604.8,-5.09,-6.19,-6.27,0,*6F
1514242863.01,8700,8.5,73614.8,-5.11,-6.31,-6.23,0,*69
1514242864.25,8701,8.5,73614.8,-5.09,-6.19,-6.19,0,*62
1514242865.51,8702,8.5,73610.8,-5.11,-6.19,-6.23,0,*61
1514242866.73,8703,8.5,73612.3,-5.09,-6.13,-6.19,0,*6A
1514242867.98,8704,8.5,73608.3,-5.09,-6.19,-6.19,0,*67
1514242869.22,8705,8.5,73604.0,-5.09,-6.19,-6.19,0,*66
1514242870.46,8706,8.5,73612.3,-5.09,-6.27,-6.19,0,*68
1514242871.71,8707,8.5,73614.5,-5.09,-6.19,-6.19,0,*64
1514242872.95,8708,8.5,73612.8,-5.09,-6.19,-6.19,0,*6B
1514242874.17,8709,8.5,73618.3,-5.09,-6.13,-6.19,0,*60
1514242875.41,8710,8.5,73612.3,-5.09,-6.19,-6.27,0,*6F
1514242876.66,8711,8.5,73614.5,-5.09,-6.19,-6.19,0,*63
1514242877.89,8712,8.5,73616.5,-5.09,-6.27,-6.19,0,*6D
1514242879.14,8713,8.5,73616.8,-5.09,-6.19,-6.27,0,*6C
1514242880.37,8714,8.5,73616.3,-5.09,-6.27,-6.27,0,*66
1514242881.62,8715,8.5,73618.5,-5.09,-6.19,-6.19,0,*67
1514242882.86,8716,8.5,73614.0,-5.09,-6.19,-6.19,0,*64
1514242884.1,8717,8.5,73616.0,-5.09,-6.23,-6.23,0,*65
1514242885.34,8718,8.5,73612.5,-5.09,-6.19,-6.19,0,*6A
1514242886.59,8719,8.5,73612.0,-5.09,-6.19,-6.19,0,*6B
1514242887.83,8720,8.5,73612.0,-5.09,-6.19,-6.19,0,*61
1514242889.08,8721,8.5,73612.0,-5.09,-6.19,-6.19,0,*60
1514242890.32,8722,8.5,73616.0,-5.09,-6.19,-6.27,0,*6E
1514242891.56,8723,8.5,73616.8,-5.11,-6.23,-6.31,0,*68
1514242892.8,8724,8.5,73616.0,-5.09,-6.19,-6.27,0,*68
1514242894.04,8725,8.56,73620.0,-5.09,-6.27,-6.19,0,*69
1514242895.28,8726,8.5,73620.0,-5.09,-6.27,-6.19,0,*6A
1514242896.51,8727,8.5,73622.0,-5.09,-6.27,-6.27,0,*66
1514242897.73,8728,8.5,73622.3,-5.09,-6.27,-6.31,0,*6E
1514242898.97,8729,8.5,73624.3,-5.09,-6.27,-6.27,0,*68
1514242900.2,8730,8.56,73624.3,-5.09,-6.27,-6.19,0,*6D
1514242901.44,8731,8.5,73626.5,-5.09,-6.27,-6.19,0,*6C
1514242902.66,8732,8.5,73622.5,-5.11,-6.31,-6.31,0,*6B
1514242903.9,8733,8.5,73620.5,-5.09,-6.27,-6.27,0,*63
1514242905.14,8734,8.5,73616.3,-5.09,-6.19,-6.19,0,*64
1514242906.38,8735,8.5,73616.3,-5.11,-6.31,-6.23,0,*6F
1514242907.61,8736,8.5,73620.8,-5.09,-6.27,-6.27,0,*66
1514242908.85,8737,8.5,73616.5,-5.09,-6.27,-6.27,0,*67
1514242910.08,8738,8.5,73612.5,-5.07,-6.13,-6.23,0,*65
1514242911.32,8739,8.5,73614.3,-5.07,-6.27,-6.13,0,*60
1514242912.51,8740,8.5,73614.3,-5.09,-6.31,-6.31,0,*67
1514242913.75,8741,8.5,73618.3,-5.09,-6.19,-6.27,0,*6B
1514242914.99,8742,8.5,73616.3,-5.09,-6.27,-6.27,0,*65
1514242916.22,8743,8.5,73618.0,-5.09,-6.27,-6.27,0,*64
1514242917.44,8744,8.5,73616.5,-5.09,-6.31,-6.27,0,*64
1514242918.65,8745,8.5,73614.3,-5.09,-6.27,-6.31,0,*65
1514242919.87,8746,8.5,73612.5,-5.09,-6.27,-6.31,0,*66
1514242921.09,8747,8.5,73616.5,-5.11,-6.35,-6.31,0,*6D
1514242922.31,8748,8.5,73622.0,-5.11,-6.31,-6.31,0,*66
1514242923.53,8749,8.5,73618.0,-5.11,-6.35,-6.35,0,*67
1514242924.75,8750,8.5,73614.0,-5.11,-6.31,-6.35,0,*6B
1514242925.98,8751,8.5,73610.0,-5.09,-6.27,-6.27,0,*67
1514242927.2,8752,8.5,73610.5,-5.09,-6.27,-6.31,0,*63
1514242928.39,8753,8.5,73610.5,-5.09,-6.31,-6.31,0,*65
1514242929.61,8754,8.5,73614.0,-5.11,-6.31,-6.35,0,*6F
1514242930.8,8755,8.5,73618.5,-5.09,-6.31,-6.31,0,*63
1514242932.0,8756,8.5,73618.0,-5.09,-6.39,-6.31,0,*68
1514242933.19,8757,8.5,73628.0,-5.09,-6.31,-6.31,0,*61
1514242934.41,8758,8.5,73622.0,-5.11,-6.35,-6.35,0,*67
1514242935.6,8759,8.5,73612.8,-5.09,-6.31,-6.39,0,*67
1514242936.82,8760,8.5,73608.0,-5.11,-6.35,-6.35,0,*6C
1514242938.03,8761,8.5,73612.3,-5.09,-6.31,-6.27,0,*63
1514242939.27,8762,8.5,73612.5,-5.09,-6.27,-6.27,0,*67
1514242940.49,8763,8.5,73614.0,-5.09,-6.31,-6.27,0,*61
1514242941.71,8764,8.5,73610.5,-5.11,-6.35,-6.31,0,*6C
1514242942.93,8765,8.5,73608.8,-5.11,-6.31,-6.31,0,*69
1514242944.15,8766,8.5,73610.8,-5.11,-6.35,-6.31,0,*6E
1514242945.38,8767,8.5,73610.5,-5.09,-6.27,-6.27,0,*62
1514242946.62,8768,8.5,73614.3,-5.09,-6.27,-6.27,0,*6D
1514242947.83,8769,8.5,73614.0,-5.09,-6.31,-6.27,0,*6B
1514242949.05,8770,8.5,73608.8,-5.09,-6.31,-6.27,0,*63
1514242950.26,8771,8.5,73614.0,-5.09,-6.31,-6.27,0,*62
1514242951.48,8772,8.5,73610.5,-5.11,-6.31,-6.35,0,*6B
1514242952.7,8773,8.5,73608.0,-5.11,-6.31,-6.35,0,*6A
1514242953.89,8774,8.5,73612.3,-5.09,-6.43,-6.35,0,*61
1514242955.08,8775,8.5,73614.0,-5.09,-6.39,-6.31,0,*69
1514242956.3,8776,8.5,73612.3,-5.11,-6.31,-6.31,0,*6B
1514242957.52,8777,8.5,73616.3,-5.11,-6.35,-6.31,0,*6E
1514242958.74,8778,8.5,73618.8,-5.09,-6.31,-6.27,0,*6B
1514242959.96,8779,8.5,73592.8,-5.11,-6.35,-6.35,0,*64
1514242961.17,8780,8.5,73584.3,-5.09,-6.27,-6.31,0,*6C
1514242962.39,8781,8.5,73574.5,-5.11,-6.31,-6.43,0,*66
1514242963.6,8782,8.5,73572.3,-5.11,-6.31,-6.35,0,*64
1514242964.84,8783,8.5,73570.8,-5.09,-6.27,-6.27,0,*68
1514242966.06,8784,8.5,73572.8,-5.11,-6.35,-6.35,0,*66
1514242967.3,8785,8.5,73590.3,-5.11,-6.31,-6.23,0,*64
1514242968.54,8786,8.5,73584.5,-5.11,-6.23,-6.31,0,*67
1514242969.78,8787,8.5,73602.0,-5.11,-6.23,-6.31,0,*66
1514242971.01,8788,8.5,73604.0,-5.11,-6.31,-6.23,0,*69
1514242972.25,8789,8.5,73616.5,-5.11,-6.31,-6.23,0,*68
1514242973.49,8790,8.5,73614.3,-5.11,-6.23,-6.31,0,*60
1514242974.71,8791,8.5,73622.3,-5.11,-6.31,-6.31,0,*62
1514242975.95,8792,8.5,73616.0,-5.09,-6.19,-6.19,0,*68
1514242977.21,8793,8.5,73616.8,-5.11,-6.23,-6.23,0,*60
1514242978.47,8794,8.5,73608.5,-5.11,-6.23,-6.23,0,*67
1514242979.68,8795,8.5,73598.5,-5.09,-6.19,-6.13,0,*65
1514242980.93,8796,8.5,73606.5,-5.09,-6.19,-6.19,0,*6C
1514242982.19,8797,8.5,73600.5,-5.11,-6.23,-6.23,0,*64
1514242983.4,8798,8.5,73600.5,-5.09,-6.19,-6.13,0,*68
1514242984.67,8799,8.5,73614.5,-5.11,-6.19,-6.19,0,*6A
1514242985.86,8800,8.56,73602.5,-5.09,-6.13,-6.05,0,*6B
1514242987.04,8801,8.5,73600.0,-5.09,-6.05,-6.13,0,*6A
1514242988.31,8802,8.5,73602.5,-5.11,-6.19,-6.19,0,*67
1514242989.55,8803,8.5,73608.8,-5.11,-6.09,-6.19,0,*67
1514242990.79,8804,8.5,73612.0,-5.11,-6.19,-6.09,0,*60
1514242991.98,8805,8.5,73614.5,-5.09,-6.13,-6.13,0,*69
1514242993.17,8806,8.5,73620.8,-5.09,-6.05,-6.13,0,*6D
1514242994.35,8807,8.5,73616.5,-5.09,-6.05,-6.13,0,*6C
1514242995.56,8808,8.5,73620.8,-5.07,-6.01,-6.01,0,*6A
1514242996.75,8809,8.5,73612.5,-5.09,-6.13,-6.13,0,*65
1514242997.99,8810,8.5,73602.0,-5.11,-6.19,-6.13,0,*6E
1514242999.2,8811,8.5,73596.5,-5.11,-6.09,-6.09,0,*65
1514243000.41,8812,8.5,73598.5,-5.11,-6.09,-6.09,0,*66
1514243001.6,8813,8.5,73610.3,-5.09,-6.13,-6.05,0,*69
1514243002.79,8814,8.5,73608.5,-5.09,-6.05,-6.05,0,*69
1514243003.97,8815,8.5,73614.5,-5.09,-6.13,-6.13,0,*68
1514243005.16,8816,8.5,73622.3,-5.09,-6.05,-6.05,0,*6B
1514243006.34,8817,8.5,73616.3,-5.09,-6.05,-6.05,0,*6A
1514243007.53,8818,8.5,73614.5,-5.09,-6.13,-6.05,0,*62
1514243008.74,8819,8.5,73612.3,-5.11,-6.09,-6.09,0,*6D
1514243009.93,8820,8.5,73604.5,-5.09,-6.13,-6.05,0,*69
1514243011.12,8821,8.5,73604.3,-5.09,-6.13,-6.13,0,*6F
1514243012.3,8822,8.5,73610.8,-5.09,-6.05,-6.13,0,*6B
1514243013.49,8823,8.5,73608.8,-5.09,-6.13,-6.05,0,*6A
1514243014.68,8824,8.5,73608.3,-5.09,-6.13,-6.13,0,*6A
1514243015.89,8825,8.5,73614.0,-5.07,-6.09,-6.09,0,*65
1514243017.08,8826,8.5,73616.0,-5.09,-6.13,-6.13,0,*68
1514243018.27,8827,8.5,73604.0,-5.09,-6.13,-6.05,0,*6E
1514243019.46,8828,8.5,73608.8,-5.09,-6.13,-6.13,0,*66
1514243020.65,8829,8.5,73610.5,-5.09,-6.13,-6.13,0,*67
1514243021.86,8830,8.5,73610.0,-5.07,-6.01,-6.01,0,*61
1514243023.07,8831,8.5,73612.3,-5.07,-6.01,-6.09,0,*68
1514243024.26,8832,8.5,73604.8,-5.05,-6.09,-6.01,0,*69
1514243025.47,8833,8.56,73618.5,-5.07,-6.01,-6.09,0,*6A
1514243026.69,8834,8.5,73614.3,-5.07,-6.01,-6.01,0,*65
1514243027.9,8835,8.5,73604.8,-5.07,-6.09,-6.09,0,*64
1514243029.09,8836,8.5,73604.3,-5.05,-6.09,-6.01,0,*6D
1514243030.29,8837,8.5,73610.0,-5.05,-6.09,-6.09,0,*64
1514243031.5,8838,8.5,73610.8,-5.07,-6.09,-6.01,0,*61
1514243032.71,8839,8.5,73602.8,-5.07,-6.09,-6.09,0,*68
1514243033.93,8840,8.5,73606.0,-5.07,-6.09,-6.09,0,*66
1514243035.14,8841,8.56,73610.5,-5.07,-6.01,-6.09,0,*6F
1514243036.35,8842,8.5,73606.8,-5.07,-6.09,-6.09,0,*64
1514243037.57,8843,8.5,73606.8,-5.07,-6.09,-6.01,0,*6D
1514243038.78,8844,8.5,73598.5,-5.07,-6.13,-6.01,0,*61
1514243039.97,8845,8.5,73604.5,-5.05,-6.09,-6.01,0,*69
1514243041.18,8846,8.5,73604.8,-5.07,-6.13,-6.01,0,*63
1514243042.38,8847,8.5,73608.0,-5.05,-6.09,-6.09,0,*63
1514243043.59,8848,8.5,73606.5,-5.07,-6.01,-6.01,0,*6E
1514243044.8,8849,8.5,73608.5,-5.07,-6.09,-6.09,0,*6F
1514243046.01,8850,8.5,73610.5,-5.07,-6.01,-6.09,0,*6F
1514243047.21,8851,8.56,73614.0,-5.05,-6.09,-6.01,0,*6C
1514243048.42,8852,8.5,73608.5,-5.07,-6.01,-6.09,0,*6D
1514243049.61,8853,8.5,73606.0,-5.05,-6.09,-6.09,0,*66
1514243050.81,8854,8.56,73608.3,-5.05,-6.09,-6.01,0,*69
1514243052.02,8855,8.5,73606.8,-5.07,-6.09,-6.09,0,*62
1514243053.23,8856,8.5,73594.3,-5.07,-6.13,-6.09,0,*6A
1514243054.42,8857,8.5,73592.0,-5.05,-6.13,-6.09,0,*69
1514243055.63,8858,8.5,73598.3,-5.07,-6.13,-6.01,0,*6C
1514243056.82,8859,8.5,73610.5,-5.05,-6.13,-6.13,0,*6C
1514243058.04,8860,8.5,73604.5,-5.07,-6.09,-6.13,0,*6F
1514243059.25,8861,8.5,73600.3,-5.07,-6.13,-6.09,0,*6E
1514243060.46,8862,8.5,73592.3,-5.07,-6.13,-6.09,0,*6D
1514243061.65,8863,8.5,73584.8,-5.05,-6.13,-6.13,0,*65
1514243062.87,8864,8.5,73588.5,-5.05,-6.23,-6.13,0,*61
1514243064.06,8865,8.5,73594.3,-5.05,-6.09,-6.09,0,*63
1514243065.27,8866,8.5,73594.0,-5.07,-6.09,-6.13,0,*69
1514243066.47,8867,8.5,73602.5,-5.05,-6.09,-6.09,0,*61
1514243067.66,8868,8.5,73602.8,-5.05,-6.09,-6.09,0,*6E
1514243068.87,8869,8.5,73610.0,-5.07,-6.09,-6.13,0,*66
1514243070.08,8870,8.5,73610.3,-5.07,-6.13,-6.13,0,*65
1514243071.28,8871,8.5,73604.5,-5.05,-6.09,-6.13,0,*6D
1514243072.47,8872,8.5,73604.8,-5.05,-6.09,-6.09,0,*65
1514243073.68,8873,8.5,73614.3,-5.07,-6.01,-6.09,0,*6E
1514243074.89,8874,8.5,73608.8,-5.07,-6.09,-6.09,0,*61
1514243076.11,8875,8.5,73606.3,-5.07,-6.13,-6.09,0,*6B
1514243077.32,8876,8.5,73606.3,-5.07,-6.09,-6.13,0,*68
1514243078.53,8877,8.5,73606.3,-5.07,-6.13,-6.09,0,*69
1514243079.72,8878,8.5,73604.8,-5.05,-6.13,-6.09,0,*64
1514243080.93,8879,8.5,73612.0,-5.07,-6.13,-6.09,0,*67
1514243082.13,8880,8.5,73616.0,-5.05,-6.13,-6.13,0,*68
1514243083.34,8881,8.5,73614.0,-5.07,-6.13,-6.13,0,*6B
1514243084.53,8882,8.56,73614.5,-5.05,-6.13,-6.09,0,*61
1514243085.74,8883,8.5,73614.5,-5.05,-6.23,-6.13,0,*68
1514243086.93,8884,8.5,73612.5,-5.05,-6.13,-6.13,0,*6C
1514243088.12,8885,8.5,73612.0,-5.05,-6.13,-6.09,0,*66
1514243089.34,8886,8.5,73612.0,-5.07,-6.13,-6.13,0,*6C
1514243090.55,8887,8.56,73614.3,-5.07,-6.13,-6.13,0,*6D
1514243091.78,8888,8.5,73610.0,-5.05,-6.23,-6.23,0,*60
1514243093.0,8889,8.5,73612.5,-5.07,-6.13,-6.13,0,*63
1514243094.19,8890,8.5,73610.8,-5.05,-6.13,-6.13,0,*69
1514243095.42,8891,8.5,73610.0,-5.07,-6.23,-6.13,0,*69
1514243096.66,8892,8.5,73608.5,-5.05,-6.23,-6.23,0,*6B
1514243097.85,8893,8.5,73608.3,-5.05,-6.13,-6.13,0,*6A
1514243099.11,8894,8.5,73604.8,-5.07,-6.23,-6.23,0,*6F
1514243100.32,8895,8.5,73608.5,-5.05,-6.13,-6.23,0,*6F
1514243101.51,8896,8.5,73610.5,-5.05,-6.13,-6.13,0,*6F
1514243102.71,8897,8.5,73606.8,-5.05,-6.09,-6.13,0,*65
1514243103.92,8898,8.5,73604.8,-5.05,-6.23,-6.13,0,*62
1514243105.11,8899,8.5,73606.3,-5.05,-6.13,-6.13,0,*60
1514243106.35,8900,8.5,73604.3,-5.05,-6.23,-6.23,0,*61
1514243107.57,8901,8.5,73608.3,-5.05,-6.13,-6.23,0,*63
1514243108.8,8902,8.5,73612.0,-5.07,-6.13,-6.23,0,*62
1514243110.03,8903,8.5,73614.0,-5.07,-6.13,-6.23,0,*63
1514243111.29,8904,8.5,73614.3,-5.07,-6.23,-6.23,0,*67
1514243112.51,8905,8.5,73610.8,-5.05,-6.23,-6.13,0,*67
1514243113.74,8906,8.5,73612.8,-5.05,-6.23,-6.23,0,*67
1514243114.98,8907,8.5,73610.3,-5.05,-6.23,-6.23,0,*66
1514243116.22,8908,8.5,73602.8,-5.05,-6.23,-6.23,0,*69
1514243117.43,8909,8.5,73600.8,-5.05,-6.13,-6.23,0,*6B
1514243118.69,8910,8.5,73600.3,-5.07,-6.23,-6.23,0,*62
1514243119.91,8911,8.5,73598.8,-5.05,-6.13,-6.23,0,*62
1514243121.14,8912,8.5,73602.8,-5.07,-6.13,-6.23,0,*63
1514243122.38,8913,8.5,73598.5,-5.05,-6.27,-6.23,0,*67
1514243123.61,8914,8.5,73600.3,-5.05,-6.23,-6.23,0,*64
1514243124.87,8915,8.5,73602.0,-5.07,-6.23,-6.23,0,*67
1514243126.11,8916,8.5,73604.5,-5.05,-6.23,-6.23,0,*66
1514243127.37,8917,8.56,73616.0,-5.07,-6.23,-6.23,0,*65
1514243128.6,8918,8.5,73612.3,-5.07,-6.23,-6.13,0,*69
1514243129.84,8919,8.5,73610.3,-5.05,-6.23,-6.23,0,*69
1514243131.1,8920,8.5,73608.8,-5.07,-6.23,-6.23,0,*61
1514243132.33,8921,8.5,73610.5,-5.07,-6.23,-6.13,0,*63
1514243133.57,8922,8.5,73606.8,-5.05,-6.23,-6.23,0,*61
1514243134.8,8923,8.5,73610.8,-5.07,-6.13,-6.23,0,*61
1514243136.04,8924,8.5,73612.0,-5.07,-6.13,-6.23,0,*66
1514243137.27,8925,8.5,73616.8,-5.05,-6.23,-6.23,0,*66
1514243138.47,8926,8.5,73610.5,-5.05,-6.13,-6.13,0,*65
1514243139.7,8927,8.5,73602.8,-5.07,-6.23,-6.13,0,*65
1514243140.91,8928,8.5,73604.5,-5.07,-6.13,-6.13,0,*69
1514243142.13,8929,8.5,73608.3,-5.05,-6.13,-6.23,0,*69
1514243143.34,8930,8.5,73610.5,-5.05,-6.13,-6.23,0,*61
1514243144.58,8931,8.5,73612.8,-5.05,-6.23,-6.23,0,*63
1514243145.84,8932,8.5,73616.0,-5.07,-6.23,-6.23,0,*62
1514243147.09,8933,8.5,73610.5,-5.07,-6.27,-6.23,0,*67
1514243148.35,8934,8.5,73606.0,-5.07,-6.23,-6.23,0,*64
1514243149.59,8935,8.5,73610.0,-5.05,-6.23,-6.23,0,*67
1514243150.84,8936,8.5,73610.5,-5.07,-6.23,-6.23,0,*66
1514243152.08,8937,8.5,73608.8,-5.05,-6.27,-6.23,0,*61
1514243153.32,8938,8.5,73616.0,-5.05,-6.23,-6.27,0,*6E
1514243154.56,8939,8.5,73612.3,-5.07,-6.13,-6.23,0,*6A
1514243155.81,8940,8.5,73616.5,-5.07,-6.23,-6.23,0,*67
1514243157.06,8941,8.5,73620.8,-5.07,-6.35,-6.27,0,*65
1514243158.31,8942,8.5,73620.0,-5.07,-6.23,-6.23,0,*65
1514243159.57,8943,8.5,73626.3,-5.07,-6.23,-6.27,0,*60
1514243160.83,8944,8.5,73624.3,-5.07,-6.27,-6.27,0,*63
1514243162.07,8945,8.5,73624.0,-5.05,-6.23,-6.27,0,*64
1514243163.31,8946,8.5,73630.3,-5.05,-6.23,-6.27,0,*67
1514243164.55,8947,8.5,73636.0,-5.07,-6.13,-6.27,0,*67
1514243165.79,8948,8.5,73630.0,-5.05,-6.23,-6.27,0,*69
1514243167.03,8949,8.5,73614.5,-5.05,-6.23,-6.23,0,*6C
1514243168.29,8950,8.5,73614.3,-5.07,-6.27,-6.23,0,*62
1514243169.52,8951,8.5,73610.0,-5.07,-6.27,-6.35,0,*64
1514243170.78,8952,8.5,73610.3,-5.07,-6.27,-6.27,0,*64
1514243172.04,8953,8.5,73610.3,-5.07,-6.23,-6.27,0,*61
1514243173.3,8954,8.5,73614.5,-5.07,-6.23,-6.23,0,*62
1514243174.56,8955,8.5,73608.8,-5.07,-6.23,-6.23,0,*63
1514243175.81,8956,8.5,73604.0,-5.07,-6.27,-6.23,0,*64
1514243177.05,8957,8.5,73612.8,-5.05,-6.27,-6.23,0,*67
1514243178.3,8958,8.5,73610.0,-5.07,-6.23,-6.23,0,*6E
1514243179.56,8959,8.56,73610.5,-5.07,-6.27,-6.27,0,*6F
1514243180.8,8960,8.5,73604.3,-5.05,-6.27,-6.27,0,*67
1514243182.06,8961,8.5,73606.0,-5.07,-6.23,-6.27,0,*60
1514243183.3,8962,8.5,73614.3,-5.05,-6.23,-6.27,0,*61
1514243184.56,8963,8.5,73612.0,-5.07,-6.27,-6.27,0,*66
1514243185.8,8964,8.5,73608.3,-5.05,-6.27,-6.27,0,*63
1514243187.06,8965,8.5,73606.8,-5.07,-6.27,-6.27,0,*60
1514243188.28,8966,8.5,73608.5,-5.09,-6.31,-6.27,0,*6A
1514243189.53,8967,8.5,73606.5,-5.07,-6.27,-6.27,0,*62
1514243190.79,8968,8.5,73602.5,-5.07,-6.27,-6.23,0,*69
1514243192.03,8969,8.56,73604.0,-5.07,-6.35,-6.23,0,*6B
1514243193.28,8970,8.5,73602.8,-5.07,-6.27,-6.23,0,*60
1514243194.47,8971,8.5,73604.0,-5.09,-6.31,-6.39,0,*63
1514243195.69,8972,8.5,73610.3,-5.09,-6.31,-6.27,0,*6F
1514243196.9,8973,8.5,73602.8,-5.09,-6.27,-6.31,0,*6E
1514243198.1,8974,8.5,73602.3,-5.09,-6.31,-6.31,0,*6E
1514243199.29,8975,8.5,73604.0,-5.09,-6.31,-6.31,0,*6F
1514243200.49,8976,8.5,73604.0,-5.09,-6.31,-6.31,0,*6C
1514243201.68,8977,8.5,73606.0,-5.09,-6.31,-6.31,0,*6D
1514243202.9,8978,8.5,73610.5,-5.09,-6.31,-6.27,0,*65
1514243204.12,8979,8.5,73612.8,-5.09,-6.31,-6.27,0,*64
1514243205.31,8980,8.5,73610.8,-5.09,-6.31,-6.31,0,*65
1514243206.57,8981,8.56,73614.8,-5.07,-6.23,-6.23,0,*6A
1514243207.83,8982,8.5,73614.0,-5.07,-6.27,-6.27,0,*69
1514243209.09,8983,8.5,73612.8,-5.07,-6.27,-6.27,0,*68
1514243210.34,8984,8.5,73614.0,-5.07,-6.27,-6.27,0,*6F
1514243211.54,8985,8.5,73618.3,-5.09,-6.31,-6.31,0,*60
1514243212.74,8986,8.5,73618.3,-5.09,-6.31,-6.31,0,*63
1514243213.92,8987,8.5,73608.0,-5.09,-6.39,-6.39,0,*62
1514243215.11,8988,8.5,73610.0,-5.09,-6.31,-6.39,0,*65
1514243216.31,8989,8.56,73612.3,-5.09,-6.31,-6.31,0,*6C
1514243217.52,8990,8.5,73606.3,-5.09,-6.31,-6.27,0,*63
1514243218.71,8991,8.5,73606.8,-5.09,-6.31,-6.39,0,*6D
1514243219.91,8992,8.5,73602.5,-5.09,-6.31,-6.31,0,*66
1514243221.1,8993,8.5,73604.0,-5.09,-6.31,-6.31,0,*67
1514243222.3,8994,8.5,73604.3,-5.09,-6.31,-6.31,0,*60
1514243223.49,8995,8.56,73610.5,-5.09,-6.31,-6.31,0,*61
1514243224.68,8996,8.56,73608.3,-5.09,-6.31,-6.39,0,*6A
1514243225.88,8997,8.5,73608.8,-5.09,-6.31,-6.31,0,*63
1514243227.07,8998,8.5,73606.5,-5.09,-6.31,-6.39,0,*64
1514243228.25,8999,8.5,73610.5,-5.09,-6.39,-6.39,0,*6D
1514243229.44,9000,8.5,73608.8,-5.09,-6.39,-6.31,0,*6D
1514243230.64,9001,8.5,73606.3,-5.09,-6.31,-6.31,0,*64
1514243231.86,9002,8.5,73604.5,-5.11,-6.35,-6.43,0,*6F
1514243233.05,9003,8.5,73604.0,-5.09,-6.31,-6.31,0,*66
1514243234.24,9004,8.5,73604.3,-5.09,-6.39,-6.39,0,*61
1514243235.43,9005,8.56,73606.3,-5.09,-6.39,-6.31,0,*68
1514243236.63,9006,8.5,73602.8,-5.09,-6.31,-6.31,0,*63
1514243237.84,9007,8.5,73606.0,-5.11,-6.43,-6.43,0,*6B
1514243239.06,9008,8.5,73606.3,-5.11,-6.35,-6.43,0,*65
1514243240.28,9009,8.5,73604.5,-5.11,-6.35,-6.35,0,*65
1514243241.47,9010,8.5,73608.3,-5.09,-6.39,-6.39,0,*64
1514243242.65,9011,8.56,73602.5,-5.09,-6.39,-6.39,0,*65
1514243243.84,9012,8.5,73598.8,-5.09,-6.39,-6.31,0,*6E
1514243245.04,9013,8.56,73588.3,-5.09,-6.39,-6.31,0,*6F
1514243246.23,9014,8.5,73588.0,-5.09,-6.31,-6.39,0,*68
1514243247.44,9015,8.5,73590.8,-5.11,-6.35,-6.43,0,*69
1514243248.64,9016,8.5,73590.3,-5.09,-6.31,-6.31,0,*62
1514243249.84,9017,8.5,73590.5,-5.09,-6.31,-6.31,0,*63
1514243251.03,9018,8.5,73594.0,-5.09,-6.39,-6.31,0,*64
1514243252.22,9019,8.5,73600.5,-5.09,-6.39,-6.31,0,*65
1514243253.41,9020,8.5,73606.5,-5.09,-6.31,-6.39,0,*6F
1514243254.59,9021,8.5,73608.3,-5.09,-6.39,-6.39,0,*66
1514243255.81,9022,8.5,73606.3,-5.09,-6.31,-6.27,0,*62
1514243257.03,9023,8.5,73608.5,-5.11,-6.35,-6.43,0,*6C
1514243258.25,9024,8.5,73604.3,-5.11,-6.35,-6.43,0,*6B
1514243259.47,9025,8.5,73602.8,-5.11,-6.35,-6.35,0,*6B
1514243260.66,9026,8.5,73608.3,-5.09,-6.39,-6.31,0,*69
1514243261.88,9027,8.5,73606.3,-5.11,-6.35,-6.35,0,*69
1514243263.1,9028,8.5,73602.5,-5.11,-6.35,-6.43,0,*67
1514243264.32,9029,8.5,73600.0,-5.11,-6.35,-6.35,0,*67
1514243265.53,9030,8.5,73602.0,-5.11,-6.43,-6.43,0,*6F
1514243266.75,9031,8.5,73604.0,-5.11,-6.35,-6.43,0,*6F
1514243267.97,9032,8.5,73600.8,-5.11,-6.35,-6.39,0,*61
1514243269.16,9033,8.5,73604.8,-5.09,-6.31,-6.43,0,*60
1514243270.35,9034,8.5,73606.5,-5.09,-6.39,-6.43,0,*6F
1514243271.56,9035,8.5,73608.3,-5.11,-6.43,-6.43,0,*6A
1514243272.75,9036,8.5,73612.3,-5.09,-6.39,-6.39,0,*60
1514243273.94,9037,8.5,73610.5,-5.09,-6.31,-6.31,0,*61
1514243275.16,9038,8.5,73602.3,-5.11,-6.35,-6.35,0,*67
1514243276.38,9039,8.56,73610.8,-5.11,-6.43,-6.35,0,*67
1514243277.57,9040,8.5,73608.3,-5.09,-6.31,-6.39,0,*69
1514243278.78,9041,8.5,73612.3,-5.11,-6.43,-6.35,0,*68
1514243280.0,9042,8.5,73608.0,-5.11,-6.43,-6.35,0,*6B
1514243281.22,9043,8.5,73608.0,-5.11,-6.35,-6.35,0,*6B
1514243282.44,9044,8.5,73610.5,-5.11,-6.35,-6.35,0,*6C
1514243283.66,9045,8.5,73612.5,-5.11,-6.35,-6.35,0,*6D
1514243284.88,9046,8.5,73612.5,-5.11,-6.35,-6.43,0,*6F
1514243286.1,9047,8.5,73618.5,-5.11,-6.35,-6.43,0,*6E
1514243287.31,9048,8.5,73616.5,-5.11,-6.43,-6.35,0,*61
1514243288.53,9049,8.5,73622.5,-5.11,-6.43,-6.35,0,*60
1514243289.75,9050,8.5,73616.8,-5.11,-6.35,-6.43,0,*68
1514243290.96,9051,8.5,73616.8,-5.11,-6.43,-6.35,0,*69
1514243292.18,9052,8.5,73614.5,-5.11,-6.43,-6.35,0,*6A
1514243293.37,9053,8.5,73612.5,-5.13,-6.43,-6.35,0,*69
1514243294.57,9054,8.5,73612.5,-5.13,-6.35,-6.35,0,*6F
1514243295.79,9055,8.5,73616.0,-5.11,-6.35,-6.35,0,*6C
1514243297.01,9056,8.5,73614.0,-5.11,-6.43,-6.35,0,*6E
1514243298.23,9057,8.5,73616.0,-5.11,-6.35,-6.35,0,*6E
1514243299.44,9058,8.5,73614.3,-5.11,-6.35,-6.43,0,*60
1514243300.66,9059,8.5,73612.5,-5.11,-6.43,-6.35,0,*61
1514243301.88,9060,8.5,73614.5,-5.11,-6.35,-6.35,0,*6A
1514243303.07,9061,8.5,73602.8,-5.13,-6.43,-6.35,0,*68
1514243304.27,9062,8.5,73598.8,-5.13,-6.35,-6.35,0,*6A
1514243305.47,9063,8.56,73602.5,-5.13,-6.35,-6.35,0,*6B
1514243306.65,9064,8.5,73594.8,-5.17,-6.39,-6.39,0,*68
1514243307.85,9065,8.5,73592.0,-5.13,-6.43,-6.35,0,*6C
1514243309.04,9066,8.5,73592.8,-5.13,-6.43,-6.35,0,*6F
1514243310.24,9067,8.5,73600.0,-5.13,-6.35,-6.35,0,*6F
1514243311.43,9068,8.5,73604.0,-5.13,-6.43,-6.35,0,*61
1514243312.63,9069,8.5,73600.8,-5.13,-6.35,-6.35,0,*61
1514243313.83,9070,8.5,73604.3,-5.13,-6.35,-6.31,0,*6D
1514243315.02,9071,8.5,73602.5,-5.13,-6.43,-6.43,0,*68
1514243316.21,9072,8.5,73602.0,-5.13,-6.43,-6.43,0,*6B
1514243317.41,9073,8.5,73598.0,-5.13,-6.35,-6.31,0,*6E
1514243318.6,9074,8.5,73602.8,-5.13,-6.31,-6.35,0,*69
1514243319.82,9075,8.5,73610.0,-5.11,-6.35,-6.35,0,*6E
1514243321.02,9076,8.5,73606.5,-5.13,-6.43,-6.31,0,*6A
1514243322.21,9077,8.5,73596.5,-5.17,-6.39,-6.35,0,*66
1514243323.42,9078,8.5,73606.0,-5.13,-6.35,-6.23,0,*66
1514243324.62,9079,8.5,73602.3,-5.13,-6.31,-6.31,0,*60
1514243325.81,9080,8.5,73606.5,-5.13,-6.31,-6.35,0,*62
1514243327.03,9081,8.56,73606.5,-5.13,-6.23,-6.31,0,*64
1514243328.24,9082,8.5,73602.3,-5.13,-6.31,-6.23,0,*67
1514243329.44,9083,8.5,73598.5,-5.13,-6.31,-6.31,0,*65
1514243330.66,9084,8.5,73598.3,-5.13,-6.23,-6.31,0,*61
1514243331.85,9085,8.5,73598.5,-5.13,-6.31,-6.31,0,*63